Torna al catalogo

STARLINK-31187

AttivoComunicazioniVLEO
NORAD 58790·PAYLOAD·🇺🇸 United States

Lanciato Jan 15, 2024 da Cape Canaveral Space Force Station

Loading…

Prossimi Passaggi (prossime 24 ore)

TLE

AggiornatoSource: CelesTrak SupGP

Epoca: Sep 14, 2026, 15:04 UTC

1 58790C 24012D   26257.62826389  .00027651  00000+0  10019-2 0  2574
2 58790  42.9997 178.5839 0001506 264.7213 232.7676 15.27553013    15

Traccia STARLINK-31187 in tempo reale con AllMySat

Download on the App Store